Retour au catalogue

ARIANE 1 DEB

ActifGTO
NORAD 26684·DEBRIS·🇫🇷 France

Lancé Jul 2, 1985 depuis Guiana Space Centre

Loading…

TLE

FraisSource: Space-Track

Époque: Sep 14, 2026, 21:04 UTC

1 26684U 85056J   26257.87806054  .00000066  00000-0  26540-2 0  9991
2 26684   6.1529  28.8522 7074566 135.3931 314.6548  2.37180808239246

Suivez ARIANE 1 DEB en temps réel avec AllMySat

Download on the App Store